AT170 Weather Reports


Display with metric or nautical units.
time (UTC)temp
F
wind
direction
speed
MPH
gust
MPH
rain 1hr
in
rain 24hr
in
rain mn
in
humidity
%
barometer
mb
20260507090005 57 11 0.0 3.0 0.00 0.00 0.00 72 1009.6
20260507083005 56 10 0.0 3.0 0.00 0.00 0.00 73 1009.5
20260507080005 55 9 0.0 0.0 0.00 0.00 0.00 74 1009.6
20260507073005 54 9 0.0 2.0 0.00 0.00 0.00 75 1009.6
20260507070009 54 9 0.0 0.0 0.00 0.00 0.00 75 1009.6
20260507063004 53 9 0.0 2.0 0.00 0.00 0.00 75 1009.3
20260507060004 53 9 0.0 2.0 0.00 0.00 0.00 75 1009.2
20260507053004 53 9 0.0 5.0 0.00 0.00 0.00 74 1009.0
20260507050005 53 5 0.0 7.0 0.00 0.00 0.00 74 1009.0
20260507043004 52 355 0.0 5.0 0.00 0.00 0.00 75 1009.0
20260507040006 52 355 1.0 3.0 0.00 0.00 0.00 75 1009.1
20260507033004 52 355 0.0 3.0 0.00 0.00 0.00 73 1009.1
20260507023005 52 355 0.0 2.0 0.00 0.00 0.00 71 1008.9
20260507020005 52 355 0.0 3.0 0.00 0.00 0.00 69 1009.0
20260507013004 53 351 0.0 2.0 0.00 0.00 0.00 68 1008.9
20260507010005 53 351 0.0 1.0 0.00 0.00 0.00 66 1009.0
20260507003005 53 351 0.0 3.0 0.00 0.00 0.00 65 1009.3
20260507000004 52 349 0.0 0.0 0.00 0.00 0.00 64 1009.1
20260506233005 52 349 0.0 0.0 0.00 0.00 0.00 64 1009.2
20260506230005 51 349 0.0 0.0 0.00 0.00 0.00 63 1009.2
20260506223005 52 349 0.0 0.0 0.00 0.00 0.00 61 1008.9
20260506220007 53 349 0.0 0.0 0.00 0.00 0.00 58 1008.9
20260506213004 54 349 0.0 0.0 0.00 0.00 0.00 56 1009.0
20260506210005 55 349 0.0 0.0 0.00 0.00 0.00 52 1008.8
20260506203005 58 349 0.0 0.0 0.00 0.00 0.00 49 1008.7
20260506200005 60 349 0.0 0.0 0.00 0.00 0.00 44 1008.7
20260506193005 63 349 0.0 0.0 0.00 0.00 0.00 40 1008.5
20260506190004 65 349 0.0 0.0 0.00 0.00 0.00 37 1008.4
20260506183005 66 349 0.0 0.0 0.00 0.00 0.00 32 1008.5
20260506180005 67 349 0.0 3.0 0.00 0.00 0.00 33 1008.4
20260506173005 66 349 0.0 0.0 0.00 0.00 0.00 33 1008.6
20260506170004 65 349 0.0 0.0 0.00 0.00 0.00 35 1008.9
20260506163005 65 349 0.0 0.0 0.00 0.00 0.00 36 1008.9
20260506160005 66 349 0.0 3.0 0.00 0.00 0.00 36 1008.9
20260506153005 67 349 0.0 7.0 0.00 0.00 0.00 39 1009.0
20260506150005 67 355 1.0 7.0 0.00 0.00 0.00 40 1009.4
20260506143005 66 349 0.0 6.0 0.00 0.00 0.00 40 1009.7
20260506140004 65 350 0.0 6.0 0.00 0.00 0.00 42 1010.2
20260506130005 64 350 0.0 3.0 0.00 0.00 0.00 46 1010.7
20260506123005 65 350 1.0 9.0 0.00 0.00 0.00 45 1011.0
20260506120005 61 349 0.0 3.0 0.00 0.00 0.00 50 1011.3
20260506113005 59 349 0.0 0.0 0.00 0.00 0.00 51 1011.6
20260506110005 59 349 0.0 3.0 0.00 0.00 0.00 51 1011.6
20260506100004 60 348 0.0 3.0 0.00 0.00 0.00 52 1012.1
20260506093004 59 343 0.0 3.0 0.00 0.00 0.00 56 1012.0